FW8888 Weather Reports


time (UTC)temp
C
wind
direction
speed
KPH
gust
KPH
rain 1hr
cm
rain 24hr
cm
rain mn
cm
humidity
%
barometer
mb
20260508030054 12 0 0.0 0.0 0.00 0.86 0.86 96 1013.1
20260508024551 12 0 0.0 0.0 0.00 0.86 0.86 96 1012.9
20260508023049 12 0 0.0 0.0 0.00 0.86 0.86 96 1012.6
20260508021556 12 0 0.0 0.0 0.00 0.86 0.86 96 1012.6
20260508020050 12 0 0.0 0.0 0.00 0.86 0.86 96 1012.8
20260508014557 12 0 0.0 0.0 0.00 0.86 0.86 96 1012.5
20260508013056 12 0 0.0 0.0 0.00 0.86 0.86 95 1011.9
20260508011553 12 0 0.0 0.0 0.00 0.86 0.86 95 1012.0
20260508010056 12 0 0.0 0.0 0.00 0.86 0.86 95 1011.9
20260508004548 12 0 0.0 0.0 0.00 0.86 0.86 95 1011.5
20260508003056 12 0 0.0 0.0 0.00 0.86 0.86 96 1011.3
20260508001617 12 0 0.0 0.0 0.00 0.86 0.86 96 1011.5
20260508000054 12 0 0.0 1.6 0.00 0.86 0.86 95 1011.3
20260507234551 12 0 0.0 1.6 0.00 0.86 0.86 95 1011.0
20260507233053 12 0 0.0 0.0 0.00 0.86 0.86 95 1010.7
20260507231549 12 0 0.0 1.6 0.00 0.86 0.86 95 1010.5
20260507230052 12 0 0.0 3.2 0.00 0.86 0.86 95 1010.6
20260507224558 12 0 0.0 0.0 0.00 0.86 0.86 95 1010.4
20260507223055 12 0 0.0 3.2 0.00 0.86 0.86 96 1010.3
20260507221552 12 0 0.0 1.6 0.00 0.86 0.86 96 1010.5
20260507220052 12 0 0.0 1.6 0.00 0.86 0.86 96 1010.8
20260507214554 12 0 0.0 1.6 0.00 0.86 0.86 96 1010.4
20260507213051 12 0 0.0 0.0 0.00 0.86 0.86 96 1010.4
20260507211550 12 0 0.0 3.2 0.00 0.86 0.86 96 1010.2
20260507210051 12 263 0.0 1.6 0.05 0.86 0.86 97 1010.2
20260507204553 12 0 1.6 4.8 0.08 0.86 0.86 96 1009.9
20260507203051 12 259 0.0 4.8 0.08 0.86 0.86 97 1009.9
20260507201558 12 309 0.0 6.4 0.10 0.86 0.86 96 1009.9
20260507200056 13 0 0.0 9.7 0.05 0.81 0.81 97 1009.8
20260507194551 13 330 3.2 9.7 0.05 0.86 0.79 97 1009.5
20260507193052 13 0 0.0 6.4 0.05 0.86 0.79 97 1009.8
20260507191556 13 317 3.2 11.3 0.05 0.84 0.76 96 1009.9
20260507190057 13 0 1.6 9.7 0.05 0.84 0.76 96 1009.7
20260507184555 13 262 0.0 4.8 0.05 0.91 0.74 97 1009.5
20260507183051 14 0 0.0 4.8 0.05 0.91 0.74 97 1009.5
20260507181601 14 242 1.6 8.0 0.03 0.89 0.71 97 1009.1
20260507180053 14 0 0.0 3.2 0.03 0.89 0.71 96 1009.2
20260507174557 15 264 1.6 11.3 0.03 0.86 0.69 96 1010.1
20260507173055 16 0 1.6 6.4 0.05 0.86 0.69 95 1009.3
20260507171553 17 307 3.2 12.9 0.05 0.86 0.69 93 1008.7
20260507170053 20 0 0.0 1.6 0.08 0.86 0.69 97 1008.1
20260507164553 19 0 0.0 3.2 0.05 0.84 0.66 97 1008.6
20260507163053 20 326 0.0 4.8 0.03 0.81 0.64 97 1009.4
20260507161550 20 0 0.0 3.2 0.03 0.81 0.64 98 1009.4
20260507160053 20 0 0.0 3.2 0.03 0.79 0.61 98 1009.6
20260507154549 20 0 0.0 3.2 0.05 0.79 0.61 98 1009.6
20260507153058 20 0 0.0 1.6 0.13 0.79 0.61 98 1009.3
20260507151550 20 214 0.0 1.6 0.20 0.79 0.61 99 1009.5
20260507150049 19 0 0.0 1.6 0.18 0.76 0.58 98 1009.6
20260507144548 19 231 0.0 1.6 0.15 0.71 0.53 98 1009.8
20260507143048 19 0 0.0 3.2 0.10 0.66 0.48 98 1009.8
20260507141554 19 0 0.0 3.2 0.03 0.58 0.41 98 1009.6
20260507140053 19 218 0.0 3.2 0.03 0.58 0.41 98 1009.9
20260507134554 19 201 0.0 3.2 0.03 0.56 0.38 98 1010.2
20260507133057 19 0 0.0 1.6 0.03 0.56 0.38 98 1010.1
20260507131600 19 0 0.0 1.6 0.03 0.56 0.38 99 1010.1
20260507130107 18 0 0.0 1.6 0.03 0.56 0.38 98 1010.2
20260507124555 18 0 0.0 1.6 0.00 0.53 0.36 99 1010.2
20260507123054 18 0 0.0 1.6 0.03 0.53 0.36 98 1010.4
20260507121605 18 0 0.0 0.0 0.05 0.53 0.36 98 1010.2
20260507114609 18 221 0.0 1.6 0.05 0.53 0.36 99 1010.6
20260507113052 18 231 0.0 1.6 0.03 0.51 0.33 99 1010.6
20260507111604 18 0 0.0 1.6 0.03 0.48 0.30 99 1010.6
20260507110052 18 0 0.0 1.6 0.03 0.48 0.30 99 1010.4
20260507104552 18 219 0.0 1.6 0.03 0.48 0.30 99 1010.2
20260507103051 18 0 0.0 3.2 0.03 0.48 0.30 99 1010.3
20260507101603 18 0 0.0 1.6 0.00 0.46 0.28 98 1010.2
20260507100048 18 0 0.0 0.0 0.00 0.46 0.28 98 1010.2
20260507094551 18 0 0.0 1.6 0.00 0.46 0.28 98 1010.3
20260507093056 18 0 0.0 1.6 0.03 0.46 0.28 98 1010.3
20260507091556 18 0 0.0 0.0 0.03 0.46 0.28 98 1010.3
20260507090057 18 0 0.0 1.6 0.03 0.46 0.28 98 1010.4
20260507084556 18 0 0.0 1.6 0.03 0.46 0.28 98 1010.4
20260507083056 18 0 0.0 1.6 0.03 0.43 0.25 98 1010.9
20260507081555 18 0 0.0 1.6 0.03 0.43 0.25 98 1011.3
20260507080104 18 0 0.0 0.0 0.03 0.43 0.25 98 1010.7
20260507074600 18 0 0.0 1.6 0.03 0.43 0.25 98 1011.1
20260507073053 18 0 0.0 0.0 0.00 0.41 0.23 98 1011.3
20260507071550 18 0 0.0 0.0 0.00 0.41 0.23 97 1011.2
20260507070058 18 0 0.0 0.0 0.00 0.41 0.23 97 1011.0
20260507064554 18 0 0.0 0.0 0.00 0.41 0.23 97 1011.5
20260507063054 18 0 0.0 0.0 0.00 0.41 0.23 97 1012.0
20260507061554 18 0 0.0 0.0 0.08 0.41 0.23 97 1011.6
20260507060052 18 0 0.0 1.6 0.10 0.41 0.23 96 1012.2
20260507054636 18 0 0.0 1.6 0.15 0.41 0.23 96 1012.3
20260507053055 18 0 0.0 0.0 0.20 0.41 0.23 96 1011.4
20260507051552 18 238 1.6 6.4 0.15 0.33 0.15 95 1011.8
20260507050057 18 224 1.6 6.4 0.13 0.30 0.13 94 1011.9
20260507044650 20 0 0.0 3.2 0.08 0.25 0.08 92 1013.3
20260507043054 20 0 0.0 3.2 0.03 0.20 0.03 88 1013.5
20260507041602 21 0 0.0 4.8 0.00 0.18 0.00 87 1013.4
20260507040058 20 0 0.0 0.0 0.00 0.18 0.00 89 1012.9
20260507034556 21 0 0.0 0.0 0.00 0.18 0.18 85 1012.3
20260507033101 21 0 0.0 0.0 0.00 0.18 0.18 82 1012.3
20260507031604 21 0 0.0 1.6 0.00 0.18 0.18 81 1012.5